map of LFBC home
LFBC - Airport
Location
City:  Cazaux, Aquitaine, France
ICAO:LFBC

Details
Type:Airport (Aerodrome, Airfield)
Use:Military
Latitude:4432'06"N (44.534883)
Longitude:107'53"W (-1.131449)
Elevation:84 ft (26 m)
Variation:0.17W (WMM2015 magnetic declination)
0.13 annual change
Runways:1
Longest:7900 × 148 ft (2408 × 45 m)

Time
Time Zone:UTC+1 (DST+2)
Local Time:

Weather
METAR:LFBC 110730Z AUTO 24013KT 210V270 9999 -RA SCT038/// BKN054/// BKN066/// ///TCU 11/06 Q0984 TEMPO 26030G50KT SHRA BKN025CB
TAF:LFBC 110536Z 1103/1203 26020G35KT 9999 SCT035
TEMPO 1105/1115 26025G40KT 5000 SHRA BKN030TCU PROB30
TEMPO 1107/1113 26030G50KT BKN025CB
BECMG 1115/1116 28010G20KT
TEMPO 1116/1203 4000 RA BKN012

Related Locations
Nearby:
Farthest:CHT: 12203 mi / 19638 km
Waitangi [Tuuta], CIT, NZ

Find:

   beyond  
but within

Other Information
Maps:
NOTAMs:
Links:
Sources:

  
flag of France
flag of Aquitaine
  

Sectional Chart

Flight Planning
at skyvector.com

Satellite Image

Google Maps Satellite view

 

Copyright © 2004-2017 Karl L. Swartz. All rights reserved.
The Great Circle Mapper name and logo are trademarks of the Great Circle Mapper.
All other trademarks mentioned herein belong to their respective owners.
Please see credits for attibutions and further copyright information.

  Follow gcmap on Facebook Follow gcmap on Twitter Follow gcmap on Google+ GCmap on LinkedIn

hCard Microformat

Geo Microformat